カタログに戻る

STARLINK-38156

運用中通信SSO
NORAD 100371·PAYLOAD·🇺🇸 United States

打ち上げ Aug 19, 2026 から Vandenberg Space Force Base

Loading…

次のパス (今後24時間)

TLE

最新Source: Space-Track

元期: Sep 14, 2026, 13:49 UTC

1 A0371U 26190A   26257.57584394  .00097961  00000-0  64930-3 0  9993
2 A0371  97.2837 111.6508 0001660  79.6933 280.4519 15.75219186  5415

AllMySatでSTARLINK-38156をリアルタイム追跡

Download on the App Store